• In Deutschland
  • Länderverzeichnis
  • Für 7 Tage
  • Wassertemperatur
  • Satellitenkarten
  • Wetterkarte
  • Widgets
  • user-avatar
    Anmelden

    Stündliche Wetter Newberg

    Heute, 26 September, Dienstag

    Zeit Temperatur Niederschläge Wind Luftdruck Luftfeuchtigkeit
    00:00 +14°C° 0 mm 1 m/S 750 mmHg 86%
    01:00 +14°C° 0 mm 1 m/S 750 mmHg 87%
    02:00 +14°C° 0 mm 1 m/S 750 mmHg 88%
    03:00 +13°C° 0 mm 1 m/S 750 mmHg 88%
    04:00 +13°C° 0 mm 1 m/S 750 mmHg 89%
    05:00 +13°C° 0 mm 1 m/S 750 mmHg 88%
    06:00 +14°C° 0 mm 1 m/S 750 mmHg 87%
    07:00 +14°C° 0 mm 1 m/S 751 mmHg 86%
    08:00 +16°C° 0 mm 1 m/S 750 mmHg 77%
    09:00 +19°C° 0 mm 1 m/S 750 mmHg 68%
    10:00 +21°C° 0 mm 2 m/S 750 mmHg 59%
    11:00 +23°C° 0 mm 2 m/S 750 mmHg 55%
    12:00 +24°C° 0 mm 2 m/S 750 mmHg 51%
    13:00 +26°C° 0 mm 2 m/S 749 mmHg 47%
    14:00 +26°C° 0 mm 2 m/S 749 mmHg 46%
    15:00 +26°C° 0 mm 2 m/S 749 mmHg 46%
    16:00 +26°C° 0 mm 2 m/S 748 mmHg 46%
    17:00 +24°C° 0 mm 2 m/S 748 mmHg 54%
    18:00 +21°C° 0 mm 2 m/S 748 mmHg 61%
    19:00 +19°C° 0 mm 2 m/S 748 mmHg 69%
    20:00 +18°C° 0 mm 2 m/S 749 mmHg 71%
    21:00 +18°C° 0 mm 2 m/S 749 mmHg 72%
    22:00 +17°C° 0 mm 2 m/S 749 mmHg 74%
    23:00 +17°C° 0 mm 2 m/S 748 mmHg 75%

    Morgen, 27 September, Mittwoch

    Zeit Temperatur Niederschläge Wind Luftdruck Luftfeuchtigkeit
    00:00 +16°C° 0 mm 2 m/S 748 mmHg 75%
    01:00 +16°C° 0 mm 2 m/S 748 mmHg 76%
    02:00 +15°C° 0 mm 1 m/S 748 mmHg 76%
    03:00 +15°C° 0 mm 1 m/S 748 mmHg 76%
    04:00 +15°C° 0 mm 1 m/S 748 mmHg 76%
    05:00 +15°C° 0 mm 1 m/S 748 mmHg 74%
    06:00 +15°C° 0 mm 1 m/S 748 mmHg 73%
    07:00 +15°C° 0 mm 1 m/S 748 mmHg 72%
    08:00 +19°C° 0 mm 1 m/S 748 mmHg 63%
    09:00 +21°C° 0 mm 2 m/S 748 mmHg 54%
    10:00 +25°C° 0 mm 2 m/S 748 mmHg 44%
    11:00 +26°C° 0 mm 2 m/S 747 mmHg 40%
    12:00 +28°C° 0 mm 2 m/S 747 mmHg 36%
    13:00 +30°C° 0 mm 2 m/S 747 mmHg 32%
    14:00 +30°C° 0 mm 2 m/S 746 mmHg 33%
    15:00 +30°C° 0 mm 2 m/S 746 mmHg 33%
    16:00 +30°C° 0 mm 2 m/S 746 mmHg 33%
    17:00 +28°C° 0 mm 2 m/S 746 mmHg 39%
    18:00 +25°C° 0 mm 2 m/S 746 mmHg 44%
    19:00 +23°C° 0 mm 2 m/S 746 mmHg 49%
    20:00 +21°C° 0 mm 2 m/S 746 mmHg 51%
    21:00 +20°C° 0 mm 2 m/S 747 mmHg 53%
    22:00 +20°C° 0 mm 1 m/S 747 mmHg 54%
    23:00 +20°C° 0 mm 1 m/S 747 mmHg 56%

    übermorgen, 28 September, Donnerstag

    Zeit Temperatur Niederschläge Wind Luftdruck Luftfeuchtigkeit
    00:00 +19°C° 0 mm 1 m/S 747 mmHg 57%
    01:00 +18°C° 0 mm 1 m/S 747 mmHg 59%
    02:00 +18°C° 0 mm 1 m/S 747 mmHg 60%
    03:00 +18°C° 0 mm 1 m/S 746 mmHg 61%
    04:00 +16°C° 0 mm 1 m/S 746 mmHg 62%
    05:00 +16°C° 0 mm 1 m/S 746 mmHg 62%
    06:00 +16°C° 0 mm 1 m/S 747 mmHg 62%
    07:00 +16°C° 0 mm 1 m/S 747 mmHg 62%
    08:00 +20°C° 0 mm 1 m/S 747 mmHg 55%
    09:00 +23°C° 0 mm 1 m/S 747 mmHg 47%
    10:00 +26°C° 0 mm 1 m/S 747 mmHg 39%
    11:00 +27°C° 0 mm 1 m/S 746 mmHg 36%
    12:00 +29°C° 0 mm 1 m/S 746 mmHg 33%
    13:00 +31°C° 0 mm 1 m/S 746 mmHg 31%
    14:00 +30°C° 0 mm 1 m/S 745 mmHg 32%
    15:00 +30°C° 0 mm 1 m/S 745 mmHg 34%
    16:00 +29°C° 0 mm 1 m/S 744 mmHg 36%
    17:00 +27°C° 0 mm 1 m/S 745 mmHg 43%
    18:00 +25°C° 0 mm 1 m/S 745 mmHg 50%
    19:00 +22°C° 0 mm 1 m/S 745 mmHg 58%
    20:00 +21°C° 0 mm 1 m/S 745 mmHg 60%
    21:00 +21°C° 0 mm 1 m/S 745 mmHg 63%
    22:00 +20°C° 0 mm 1 m/S 745 mmHg 65%
    23:00 +19°C° 0 mm 1 m/S 745 mmHg 66%

    29 September, Freitag

    Zeit Temperatur Niederschläge Wind Luftdruck Luftfeuchtigkeit
    00:00 +19°C° 0 mm 1 m/S 745 mmHg 67%
    01:00 +18°C° 0 mm 1 m/S 745 mmHg 68%
    02:00 +18°C° 0 mm 1 m/S 745 mmHg 69%
    03:00 +18°C° 0 mm 1 m/S 745 mmHg 71%
    04:00 +18°C° 0 mm 1 m/S 745 mmHg 73%
    05:00 +16°C° 0,3 mm 1 m/S 745 mmHg 76%
    06:00 +16°C° 0,3 mm 1 m/S 745 mmHg 78%
    07:00 +16°C° 0,3 mm 1 m/S 745 mmHg 81%
    08:00 +16°C° 0,2 mm 1 m/S 745 mmHg 82%
    09:00 +16°C° 0,2 mm 1 m/S 745 mmHg 84%
    10:00 +18°C° 0,2 mm 1 m/S 746 mmHg 86%
    11:00 +16°C° 1,1 mm 1 m/S 746 mmHg 87%
    12:00 +16°C° 1,1 mm 2 m/S 746 mmHg 88%
    13:00 +16°C° 1,1 mm 2 m/S 746 mmHg 89%
    14:00 +16°C° 0,5 mm 2 m/S 746 mmHg 89%
    15:00 +17°C° 0,5 mm 2 m/S 746 mmHg 88%
    16:00 +17°C° 0,5 mm 2 m/S 746 mmHg 88%
    17:00 +16°C° 0,4 mm 1 m/S 746 mmHg 89%
    18:00 +15°C° 0,4 mm 1 m/S 747 mmHg 90%
    19:00 +14°C° 0,4 mm 1 m/S 747 mmHg 92%
    20:00 +13°C° 0 mm 1 m/S 747 mmHg 92%
    21:00 +13°C° 0 mm 1 m/S 747 mmHg 92%
    22:00 +12°C° 0 mm 1 m/S 747 mmHg 92%
    23:00 +12°C° 1 mm 1 m/S 747 mmHg 92%

    30 September, Samstag

    Zeit Temperatur Niederschläge Wind Luftdruck Luftfeuchtigkeit
    00:00 +12°C° 1 mm 1 m/S 747 mmHg 92%
    01:00 +12°C° 1 mm 1 m/S 748 mmHg 92%
    02:00 +12°C° 0,5 mm 2 m/S 748 mmHg 93%
    03:00 +12°C° 0,5 mm 2 m/S 748 mmHg 93%
    04:00 +12°C° 0,5 mm 2 m/S 748 mmHg 93%
    05:00 +12°C° 0,8 mm 2 m/S 748 mmHg 93%
    06:00 +11°C° 0,8 mm 3 m/S 747 mmHg 92%
    07:00 +11°C° 0,8 mm 3 m/S 747 mmHg 92%
    08:00 +12°C° 0,6 mm 3 m/S 748 mmHg 85%
    09:00 +13°C° 0,6 mm 3 m/S 748 mmHg 79%
    10:00 +14°C° 0,6 mm 4 m/S 748 mmHg 73%
    11:00 +14°C° 0,6 mm 4 m/S 748 mmHg 70%
    12:00 +15°C° 0,6 mm 4 m/S 749 mmHg 67%
    13:00 +15°C° 0,6 mm 4 m/S 749 mmHg 64%
    14:00 +15°C° 0,3 mm 4 m/S 749 mmHg 63%
    15:00 +15°C° 0,3 mm 4 m/S 749 mmHg 63%
    16:00 +15°C° 0,3 mm 4 m/S 749 mmHg 62%
    17:00 +14°C° 0,2 mm 3 m/S 750 mmHg 69%
    18:00 +13°C° 0,2 mm 3 m/S 750 mmHg 76%
    19:00 +12°C° 0,2 mm 2 m/S 750 mmHg 83%
    20:00 +12°C° 0,1 mm 2 m/S 751 mmHg 85%
    21:00 +10°C° 0,1 mm 2 m/S 751 mmHg 87%
    22:00 +10°C° 0,1 mm 2 m/S 751 mmHg 89%
    23:00 +10°C° 0,1 mm 2 m/S 751 mmHg 89%

    1 Oktober, Sonntag

    Zeit Temperatur Niederschläge Wind Luftdruck Luftfeuchtigkeit
    00:00 +10°C° 0,1 mm 2 m/S 751 mmHg 89%
    01:00 +10°C° 0,1 mm 2 m/S 752 mmHg 89%
    02:00 +9°C° 0 mm 2 m/S 752 mmHg 90%
    03:00 +9°C° 0 mm 2 m/S 752 mmHg 90%
    04:00 +9°C° 0 mm 2 m/S 752 mmHg 90%
    05:00 +9°C° 0,1 mm 2 m/S 752 mmHg 90%
    06:00 +9°C° 0,1 mm 2 m/S 752 mmHg 90%
    07:00 +9°C° 0,1 mm 2 m/S 752 mmHg 90%
    08:00 +12°C° 0,1 mm 2 m/S 752 mmHg 86%
    09:00 +13°C° 0,1 mm 2 m/S 752 mmHg 82%
    10:00 +13°C° 0,1 mm 3 m/S 752 mmHg 78%
    11:00 +14°C° 0,2 mm 3 m/S 752 mmHg 75%
    12:00 +14°C° 0,2 mm 3 m/S 752 mmHg 72%
    13:00 +16°C° 0,2 mm 3 m/S 752 mmHg 70%
    14:00 +16°C° 0,1 mm 3 m/S 752 mmHg 68%
    15:00 +15°C° 0,1 mm 4 m/S 751 mmHg 67%
    16:00 +15°C° 0,1 mm 4 m/S 751 mmHg 65%
    17:00 +14°C° 0 mm 3 m/S 751 mmHg 71%
    18:00 +14°C° 0 mm 2 m/S 751 mmHg 76%
    19:00 +12°C° 0 mm 1 m/S 752 mmHg 82%
    20:00 +12°C° 0 mm 1 m/S 751 mmHg 84%
    21:00 +12°C° 0 mm 1 m/S 751 mmHg 86%
    22:00 +11°C° 0 mm 1 m/S 751 mmHg 88%
    23:00 +11°C° 0,1 mm 1 m/S 751 mmHg 89%
    Mehr zeigen